Home > Time Zones > World Clock > Weather > India > Surat > Past weeks

Flag for India Weather past 2 weeks in Surat, Gujarat, India

Now
79 °F

Light rain. More clouds than sun.


Feels Like: 82 °F
Forecast: 80 / 83 °F
Wind: 12 mph from Southwest

Location: Ahmadabad Airport

Current Time: Jul 28, 2015 at 4:04:27 PM

Latest Report: Jul 28, 2015 at 3:40 PM


Visibility: 2 mi

Pressure: 29.47 "Hg

Humidity: 84%

Dew point: 73 °F

Location of SuratLocation

Historic Weather in Surat — Graph

°F

Surat temperature yesterday

Maximum temperature yesterday: 81 °F (at 1:10 PM)
Minimum temperature yesterday: 73 °F (at 4:40 PM)
Average temperature yesterday: 77 °F

Past Weeks' High & Low Weather Summary

 TemperatureHumidityPressure
High100 °F (Jul 13, 4:40 PM)100% (Jul 26, 3:10 PM)29.65 "Hg (Jul 26, 3:10 PM)
Low73 °F (Jul 27, 4:40 PM)42% (Jul 13, 4:40 PM)29.39 "Hg (Jul 16, 3:40 PM)
Average87 °F72%29.53 "Hg
* Reported Jul 13 1:40 PM — Jul 28 2:10 PM, Surat, Weather by CustomWeather, © 2015

Note: Actual official high and low records may vary slightly from our data, if they occured in-between our weather recording intervals... More about our weather records

Advertising

Surat weather history for previous 24 hours

 ConditionsComfort  
Time TempWeatherWind HumidityBarometerVisibility
2:10 PM
Tue, Jul 28
75 °FRain showers. More clouds than sun.17 mph100%29.50 "Hg1 mi
1:40 PM75 °FRain showers. More clouds than sun.17 mph100%29.47 "Hg1 mi
1:10 PM75 °FLight rain. More clouds than sun.7 mph100%29.47 "Hg1 mi
12:10 PM77 °FHeavy rain. More clouds than sun.14 mph94%29.47 "Hg1 mi
10:40 AM73 °FRain. More clouds than sun.9 mph100%29.50 "Hg1 mi
8:10 AM77 °FLight rain. More clouds than sun.9 mph94%29.47 "Hg1 mi
7:40 AM75 °FLight rain. More clouds than sun.16 mph100%29.47 "Hg1 mi
6:40 AM77 °FRain. More clouds than sun.14 mph94%29.47 "Hg1 mi
6:10 AM77 °FRain. Mostly cloudy.14 mph94%29.45 "Hg1 mi
5:40 AM77 °FRain. Mostly cloudy.15 mph94%29.45 "Hg1 mi
5:10 AM75 °FRain. Mostly cloudy.12 mph94%29.45 "Hg1 mi
4:40 AM73 °FLight rain. Mostly cloudy.14 mph94%29.47 "Hg2 mi
4:10 AM73 °FLight rain. Mostly cloudy.16 mph94%29.47 "Hg2 mi
3:40 AM73 °FLight rain. Mostly cloudy.14 mph100%29.47 "Hg2 mi
3:10 AM73 °FLight rain. Mostly cloudy.12 mph100%29.47 "Hg2 mi
2:40 AM73 °FLight rain. Mostly cloudy.14 mph100%29.50 "Hg2 mi
2:10 AM73 °FLight rain. Mostly cloudy.16 mph100%29.50 "Hg2 mi
12:10 AM75 °FLight rain. Mostly cloudy.10 mph100%29.53 "Hg2 mi
11:40 PM
Mon, Jul 27
75 °FLight rain. Mostly cloudy.12 mph100%29.53 "Hg2 mi
11:10 PM77 °FLight rain. Mostly cloudy.10 mph94%29.53 "Hg2 mi
10:40 PM77 °FLight rain. Mostly cloudy.9 mph94%29.53 "Hg2 mi
10:10 PM77 °FLight rain. Passing clouds.13 mph94%29.53 "Hg2 mi
9:10 PM77 °FLight rain. Mostly cloudy.15 mph94%29.53 "Hg1 mi
8:40 PM77 °FLight rain. Mostly cloudy.17 mph89%29.53 "Hg1 mi
8:10 PM75 °FLight rain. Mostly cloudy.17 mph94%29.50 "Hg1 mi
5:40 PM75 °FRain. More clouds than sun.9 mph94%29.45 "Hg1 mi
5:10 PM75 °FRain. More clouds than sun.6 mph100%29.45 "Hg1 mi
4:40 PM73 °FRain. More clouds than sun.9 mph100%29.45 "Hg1 mi
Weather by CustomWeather, © 2015

See weather overviewHow to use our weather pages